Location: Fort Wayne
(41.1310°N, 85.1290°W)
Time: 15:22:01
(UTC-04:00)

Helios 1B - Visible Passes

Search period start: 20 June 2018 00:00
Search period end: 30 June 2018 00:00
Orbit: 620 x 623 km, 98.2° (Epoch: 19 June)

Date Brightness Start Highest point End Pass type
(mag) Time Alt. Az. Time Alt. Az. Time Alt. Az.
20 Jun 5.9 02:17:04 29° E 02:18:02 32° ENE 02:21:53 10° N visible
20 Jun 6.0 03:54:16 22° W 03:54:16 22° W 03:57:35 10° NW visible
21 Jun 5.2 02:35:05 44° ESE 02:35:45 49° ENE 02:39:57 10° N visible
21 Jun 6.5 04:12:17 15° W 04:12:17 15° W 04:14:33 10° WNW visible
22 Jun 4.5 02:53:06 69° SE 02:53:32 78° ENE 02:57:53 10° N visible
23 Jun 7.2 01:34:06 10° E 01:35:48 12° ENE 01:37:30 10° NE visible
23 Jun 4.5 03:11:08 66° WSW 03:11:20 67° WSW 03:15:40 10° NNW visible
24 Jun 6.7 01:51:57 15° E 01:53:25 18° ENE 01:56:21 10° NNE visible
24 Jun 5.1 03:29:09 42° W 03:29:12 42° W 03:33:19 10° NNW visible
25 Jun 6.2 02:09:58 24° E 02:11:04 27° ENE 02:14:42 10° N visible
25 Jun 5.7 03:47:11 27° W 03:47:11 27° W 03:50:47 10° NW visible
26 Jun 5.5 02:28:01 37° E 02:28:46 40° ENE 02:32:51 10° N visible
26 Jun 6.3 04:05:13 18° W 04:05:13 18° W 04:07:59 10° NW visible
27 Jun 4.8 02:46:03 58° ESE 02:46:31 64° ENE 02:50:49 10° N visible
27 Jun 6.7 04:23:15 11° W 04:23:15 11° W 04:24:21 10° WNW visible
28 Jun 4.4 03:04:04 77° SSW 03:04:19 82° WSW 03:08:40 10° NNW visible
29 Jun 6.9 01:44:54 13° E 01:46:29 15° ENE 01:48:59 10° NNE visible
29 Jun 4.8 03:22:07 51° WSW 03:22:09 51° W 03:26:24 10° NNW visible
